Wind_Speed
37 39 42 42 41 37 36 38 38 40 42 43 44 45 45 41 39 38 37 39 45 45 52 78 91 96 97 99 99 99 90 86 83 86 88 82 83 79 76 70 64 61 57 51 56
42 46 47 45 44 42 40 42 44 46 48 50 51 49 47 48 46 44 39 41 42 51 51 54 82 96 98 101 102 101 97 93 94 93 96 91 89 84 79 74 70 67 65 59 56
48 50 49 49 49 50 49 49 51 51 54 54 54 54 53 53 50 52 49 46 41 47 59 59 58 87 100 103 103 104 100 106 103 104 101 95 92 89 85 79 73 72 70 67 62
53 54 53 53 55 58 62 60 59 58 60 59 58 56 57 59 61 60 54 55 50 45 54 65 64 63 90 102 106 106 106 106 109 108 105 99 99 94 88 85 80 76 73 71 69
59 59 60 60 64 66 69 68 68 65 67 69 67 67 64 64 72 64 63 59 61 58 53 60 68 69 66 87 105 106 108 108 109 114 110 106 101 96 91 91 87 83 78 76 74
62 65 67 67 66 69 72 76 75 75 75 76 76 74 73 69 77 75 71 67 66 68 64 57 67 75 72 71 87 103 108 109 110 112 115 113 107 102 97 97 93 89 86 84 82
67 69 72 74 73 77 78 80 81 84 89 86 90 89 87 73 86 85 85 81 75 73 74 70 67 75 76 78 77 90 97 110 111 111 112 117 114 109 105 101 101 99 96 91 88
75 75 79 80 82 85 86 89 92 93 97 98 95 102 95 92 96 95 93 90 87 78 80 80 73 75 80 82 80 81 86 97 103 110 112 114 113 114 111 107 108 105 104 99 95
78 81 84 86 88 94 92 94 94 99 95 103 109 118 111 108 109 105 100 95 93 89 85 88 84 78 84 84 85 84 79 80 83 95 106 108 108 117 116 117 117 114 108 105 101
82 86 90 95 98 101 103 106 109 111 112 118 120 122 124 121 119 115 108 102 99 97 94 92 90 85 85 84 79 81 86 86 83 81 86 94 102 105 115 118 121 120 114 109 104
91 96 100 106 108 109 114 116 121 124 117 123 120 99 109 104 112 109 106 107 106 102 98 100 101 85 84 88 87 91 89 88 87 82 74 85 94 98 108 110 114 117 116 113 111
97 104 108 114 114 122 123 127 131 130 110 108 86 80 78 78 78 88 88 96 98 99 103 100 91 90 96 96 93 91 91 87 89 87 84 82 84 86 91 104 107 107 109 110 107
104 108 113 120 120 125 130 135 129 104 88 79 71 65 62 64 61 61 65 75 90 95 94 95 90 98 94 96 95 94 91 90 91 89 90 90 88 83 81 91 97 100 107 109 107
110 116 118 120 122 122 124 125 112 92 78 70 62 57 56 53 57 55 52 58 66 80 86 84 90 92 96 95 99 98 94 95 95 94 93 95 88 84 78 83 84 90 91 98 103
120 119 123 127 122 125 121 103 92 78 72 61 51 47 44 42 44 48 49 52 61 67 72 77 91 89 97 89 97 94 102 98 96 96 99 98 93 85 79 83 81 83 86 82 83
119 118 120 117 113 111 102 90 81 71 60 53 44 38 34 35 37 38 42 49 56 60 62 74 85 85 77 91 100 107 109 105 102 100 101 92 92 91 82 81 82 81 80 85 85
121 123 121 115 102 101 91 82 70 62 52 45 39 31 28 27 29 31 36 41 50 55 61 68 76 83 81 84 97 110 112 110 112 112 86 87 91 86 84 84 80 78 76 73 74
113 118 117 109 100 94 85 74 64 54 45 39 33 27 21 18 20 24 30 36 40 48 57 64 70 75 78 76 85 97 109 107 105 97 88 91 86 85 80 79 78 76 76 74 73
120 126 116 108 99 88 78 69 58 49 40 33 25 20 15 14 16 19 23 28 34 40 49 56 64 68 71 76 80 90 100 104 106 99 102 95 90 82 79 79 78 76 77 78 75
119 126 117 106 91 82 70 59 50 42 34 26 20 14 10 9 12 16 19 23 27 32 39 50 57 64 67 73 74 74 88 103 112 106 104 100 93 88 82 79 76 75 71 71 73
129 129 116 102 88 75 66 55 45 36 29 23 16 11 7 6 11 12 16 20 23 27 33 40 50 58 62 63 62 71 83 97 100 103 99 97 94 92 86 84 79 75 73 71 71
133 134 111 100 87 71 62 50 42 34 25 18 12 8 4 4 9 13 12 12 17 23 29 35 42 51 61 67 69 69 76 82 94 101 100 99 98 92 85 83 82 80 76 73 72
136 129 106 93 81 68 57 47 39 30 22 16 10 5 1 3 7 10 15 17 19 21 23 29 34 41 46 54 64 67 69 77 84 91 96 95 90 90 83 81 82 79 76 73 72
141 118 107 90 74 63 52 44 35 28 21 14 8 5 5 7 10 14 18 22 25 26 25 25 28 32 40 48 51 61 68 73 79 84 88 89 85 86 80 74 74 75 72 71 72
133 113 102 87 72 62 51 41 31 24 20 10 9 5 9 11 14 14 16 14 17 18 20 19 25 27 31 37 45 50 59 70 75 80 83 81 83 79 75 69 70 70 70 70 70
124 111 97 82 68 58 48 38 29 22 15 9 10 7 11 14 16 13 13 11 8 15 17 18 22 28 26 32 37 43 48 57 69 78 78 75 77 77 72 69 69 68 68 69 69
115 110 89 77 64 55 46 36 26 20 13 9 9 9 14 17 18 18 20 20 18 15 14 16 24 25 23 25 28 29 34 39 51 63 67 71 74 72 70 68 66 67 67 67 65
Wind_Direction
322 323 323 321 318 313 308 305 304 304 303 301 300 298 298 293 290 290 283 267 258 256 237 230 226 226 227 226 228 226 224 222 224 226 225 226 230 231 233 226 223 219 223 227 227
322 323 321 318 317 313 308 305 304 300 298 298 296 293 293 290 287 281 286 279 263 253 250 239 231 226 227 228 228 229 225 225 225 228 228 226 230 232 233 233 227 222 224 225 227
324 323 321 319 315 310 306 304 301 298 295 294 293 292 290 288 282 275 277 283 281 256 251 249 238 230 226 228 228 229 227 226 226 229 231 229 230 230 234 234 232 229 225 227 229
324 322 318 315 312 311 309 308 307 302 302 298 300 294 288 283 278 268 280 277 272 267 252 250 249 238 229 227 227 228 227 228 228 230 232 231 232 232 233 236 236 233 230 228 229
325 320 316 315 315 315 313 311 310 306 300 297 293 295 288 286 265 277 278 267 266 265 259 249 245 246 239 230 227 228 228 228 229 229 231 232 234 234 235 237 238 237 234 233 231
321 319 318 319 318 313 314 309 308 302 298 295 288 286 283 276 271 273 277 261 263 259 255 255 243 241 241 238 230 227 229 229 229 231 232 233 233 235 235 235 237 238 238 237 237
321 319 319 318 317 315 309 305 301 297 295 288 289 283 282 263 272 272 274 269 257 253 251 246 246 238 236 238 235 229 227 229 231 231 232 232 232 233 235 235 235 236 238 236 236
324 321 318 316 316 311 307 303 301 297 293 293 285 286 281 266 271 267 268 269 263 254 244 243 244 241 234 233 233 233 228 227 230 232 232 233 233 233 233 235 239 237 237 238 238
324 319 317 315 311 311 304 299 296 293 288 285 284 287 284 273 271 272 267 261 261 254 244 238 237 235 233 230 230 234 232 227 229 231 232 232 233 234 233 235 236 238 238 237 239
323 319 318 314 312 308 305 301 297 294 288 285 286 285 282 278 276 270 265 260 254 253 245 237 233 231 230 229 229 229 232 229 227 227 232 232 232 234 232 234 235 238 238 239 240
321 321 316 316 313 309 304 301 299 296 288 286 294 290 281 277 271 270 266 262 256 252 246 237 231 230 227 228 222 224 226 228 227 223 221 227 230 233 235 234 236 237 238 239 240
322 320 318 315 311 309 308 305 304 308 302 298 294 288 283 274 268 264 260 257 257 255 247 245 242 227 224 223 222 222 220 223 224 222 221 224 224 227 232 235 236 237 238 239 240
324 317 316 316 311 310 308 308 310 314 309 301 296 289 283 277 268 261 254 250 247 249 248 248 238 229 225 220 219 219 219 221 225 224 223 223 225 225 229 233 234 237 239 239 240
322 320 316 315 314 313 313 313 313 312 309 304 300 292 284 274 265 260 248 242 240 239 240 241 240 232 226 219 216 216 218 218 220 222 221 221 222 223 226 231 235 236 238 240 241
323 320 316 315 316 316 317 319 317 316 312 309 303 294 283 273 265 255 250 241 237 232 230 232 237 232 226 222 217 213 219 216 217 221 221 220 221 225 226 232 234 238 239 241 240
324 321 320 318 321 320 320 321 320 319 316 311 304 294 281 272 264 254 244 238 233 229 224 226 230 232 226 223 215 214 215 216 214 219 220 220 222 224 224 229 232 235 238 242 244
323 323 322 326 329 328 326 325 324 322 319 314 306 296 281 267 260 253 245 236 232 228 223 221 225 228 224 221 216 214 215 214 215 217 214 220 222 225 224 228 229 232 234 236 239
330 334 332 333 333 331 329 329 327 323 322 318 309 298 288 272 253 241 239 236 228 226 224 222 222 225 224 221 220 218 217 218 219 217 215 217 219 224 224 228 231 233 235 236 238
330 336 339 336 337 334 333 332 330 328 328 321 313 299 282 257 242 228 224 229 228 224 221 220 222 222 221 221 220 221 217 217 217 214 215 213 216 219 223 227 231 233 235 237 240
341 342 341 339 339 337 336 334 333 333 329 324 325 320 302 276 239 222 215 215 218 217 216 217 216 217 218 222 219 217 218 217 215 212 215 213 214 216 219 222 229 232 235 237 238
345 344 342 340 342 341 339 339 339 338 332 334 343 338 316 256 230 214 211 207 207 208 211 213 216 215 213 218 219 218 217 216 214 214 213 214 214 215 217 220 224 229 233 236 239
344 344 344 343 343 343 342 344 344 341 340 349 358 359 302 216 204 202 187 186 199 200 201 208 212 216 215 214 213 213 213 215 217 213 212 214 216 215 217 222 225 229 231 234 238
343 344 343 344 345 345 344 349 348 346 355 6 23 18 0 163 173 162 154 167 179 185 195 197 206 211 215 216 217 214 213 214 210 210 213 214 214 216 216 220 224 227 231 236 240
343 344 345 346 346 347 349 352 353 355 7 17 46 72 95 135 129 154 152 163 172 182 177 188 193 201 208 205 210 216 213 209 211 211 210 212 213 212 214 220 225 228 230 234 238
343 345 346 347 348 349 352 355 356 7 17 25 63 94 118 130 141 156 166 169 174 178 174 177 181 186 193 203 204 207 210 211 210 209 209 207 209 210 212 216 222 226 230 233 238
345 345 346 348 348 350 352 354 356 11 27 44 70 88 112 121 138 135 140 144 120 170 176 167 162 166 180 191 197 200 204 207 209 209 208 208 207 209 213 217 221 226 230 233 237
344 344 346 347 349 351 352 354 1 12 29 48 78 101 117 121 127 125 125 123 145 136 141 136 153 153 170 182 187 189 193 197 202 205 206 211 214 215 221 224 226 228 232 235 238
Height
10833 10828 10823 10818 10812 10809 10805 10801 10797 10793 10789 10785 10782 10779 10775 10772 10770 10769 10766 10768 10767 10766 10767 10769 10775 10784 10793 10803 10812 10819 10838 10854 10856 10850 10844 10856 10852 10866 10876 10890 10900 10906 10908 10919 10916
10823 10818 10812 10807 10802 10798 10795 10791 10787 10782 10777 10773 10768 10765 10761 10758 10756 10755 10757 10755 10758 10756 10754 10756 10759 10767 10776 10782 10792 10802 10823 10832 10826 10830 10824 10838 10843 10854 10866 10876 10889 10896 10901 10904 10910
10813 10807 10801 10795 10789 10783 10781 10778 10774 10770 10764 10759 10755 10751 10747 10742 10740 10738 10741 10741 10744 10745 10741 10741 10745 10748 10757 10761 10774 10784 10805 10797 10805 10804 10812 10826 10832 10843 10851 10863 10876 10884 10890 10896 10901
10801 10793 10787 10781 10775 10769 10763 10760 10756 10750 10744 10741 10738 10734 10730 10726 10717 10715 10727 10726 10726 10728 10729 10726 10729 10735 10737 10743 10750 10763 10775 10781 10789 10790 10798 10813 10816 10830 10844 10850 10859 10871 10879 10886 10890
10789 10781 10774 10768 10760 10750 10740 10733 10729 10724 10718 10713 10711 10711 10710 10708 10684 10703 10704 10704 10705 10706 10709 10711 10712 10714 10723 10725 10730 10745 10753 10761 10768 10771 10782 10793 10807 10820 10835 10838 10846 10855 10866 10873 10877
10776 10766 10757 10751 10744 10732 10721 10712 10705 10699 10694 10687 10681 10682 10682 10683 10661 10668 10682 10680 10681 10683 10687 10692 10694 10694 10704 10711 10715 10723 10730 10740 10747 10758 10763 10777 10791 10801 10815 10819 10829 10838 10847 10855 10861
10764 10750 10740 10732 10724 10715 10704 10695 10685 10676 10668 10663 10654 10648 10652 10645 10642 10639 10645 10651 10656 10658 10662 10666 10669 10675 10685 10688 10696 10701 10709 10720 10730 10737 10744 10751 10771 10785 10790 10801 10808 10815 10822 10835 10845
10750 10735 10724 10714 10704 10694 10682 10672 10662 10650 10635 10625 10616 10610 10621 10606 10604 10607 10611 10616 10620 10629 10633 10638 10644 10654 10663 10668 10677 10682 10690 10702 10710 10716 10724 10733 10750 10760 10775 10786 10784 10796 10804 10815 10827
10736 10721 10709 10700 10688 10676 10660 10647 10635 10622 10607 10588 10576 10565 10571 10565 10561 10566 10572 10580 10585 10591 10599 10605 10615 10629 10634 10648 10656 10665 10683 10683 10685 10694 10701 10714 10726 10735 10751 10755 10761 10768 10784 10797 10808
10721 10708 10694 10679 10666 10652 10636 10618 10604 10589 10573 10548 10537 10527 10516 10515 10514 10520 10530 10540 10545 10551 10560 10573 10582 10596 10611 10627 10652 10656 10656 10662 10668 10677 10683 10696 10706 10702 10720 10726 10739 10747 10767 10783 10796
10700 10686 10667 10652 10634 10617 10599 10579 10557 10539 10535 10499 10480 10486 10472 10470 10472 10474 10486 10493 10504 10512 10524 10530 10539 10576 10602 10598 10608 10616 10633 10643 10650 10656 10664 10669 10678 10686 10697 10707 10721 10733 10746 10763 10776
10680 10662 10642 10620 10599 10575 10551 10528 10506 10483 10489 10446 10446 10429 10426 10417 10424 10429 10447 10456 10468 10475 10479 10492 10527 10553 10546 10565 10583 10592 10610 10624 10629 10637 10649 10649 10661 10669 10676 10690 10704 10713 10725 10743 10752
10658 10636 10614 10588 10566 10537 10512 10484 10459 10443 10423 10414 10402 10395 10390 10383 10387 10393 10407 10414 10429 10437 10451 10464 10500 10503 10519 10538 10557 10574 10593 10604 10611 10622 10629 10633 10643 10656 10660 10672 10687 10697 10705 10719 10733
10633 10610 10585 10562 10531 10502 10473 10447 10424 10408 10392 10381 10374 10364 10357 10359 10357 10362 10375 10384 10393 10407 10418 10442 10457 10473 10491 10511 10531 10551 10567 10573 10587 10600 10611 10614 10632 10638 10646 10661 10673 10683 10691 10701 10716
10607 10584 10554 10527 10501 10467 10440 10412 10393 10378 10365 10355 10349 10341 10336 10334 10333 10338 10350 10360 10365 10377 10399 10422 10422 10441 10461 10501 10514 10539 10530 10552 10566 10578 10582 10600 10612 10631 10638 10651 10661 10669 10681 10689 10697
10584 10555 10527 10499 10467 10441 10412 10389 10370 10357 10345 10332 10327 10322 10319 10316 10317 10321 10329 10336 10346 10359 10379 10388 10398 10415 10458 10463 10483 10489 10501 10523 10543 10549 10558 10596 10608 10613 10634 10642 10648 10658 10667 10675 10684
10561 10528 10498 10469 10443 10413 10388 10369 10353 10338 10327 10318 10310 10308 10305 10303 10305 10309 10314 10320 10329 10344 10359 10369 10380 10398 10422 10438 10456 10467 10484 10501 10513 10515 10585 10588 10596 10616 10624 10627 10638 10646 10655 10664 10670
10532 10503 10472 10443 10416 10390 10369 10351 10336 10324 10313 10306 10300 10297 10295 10295 10297 10299 10303 10309 10318 10328 10340 10354 10367 10383 10405 10428 10446 10465 10475 10501 10522 10551 10577 10572 10588 10598 10615 10619 10628 10637 10645 10651 10656
10512 10482 10451 10421 10397 10373 10355 10335 10323 10312 10303 10297 10293 10289 10287 10287 10287 10291 10296 10302 10309 10318 10329 10342 10355 10372 10390 10405 10423 10438 10460 10492 10501 10530 10527 10554 10567 10588 10600 10606 10615 10626 10633 10640 10647
10491 10463 10435 10406 10386 10361 10345 10331 10317 10305 10297 10290 10287 10285 10283 10284 10284 10286 10290 10295 10302 10311 10320 10331 10340 10355 10374 10386 10404 10434 10444 10450 10470 10497 10518 10542 10557 10569 10581 10593 10601 10611 10621 10628 10635
10469 10445 10420 10391 10370 10351 10336 10321 10309 10301 10292 10287 10283 10281 10280 10282 10282 10286 10289 10294 10299 10306 10314 10324 10335 10345 10362 10381 10402 10412 10425 10444 10471 10489 10509 10530 10544 10554 10567 10577 10587 10596 10606 10614 10621
10462 10431 10407 10380 10359 10344 10328 10315 10306 10297 10290 10285 10281 10280 10279 10281 10284 10285 10290 10296 10301 10305 10312 10320 10329 10339 10350 10362 10378 10394 10411 10432 10453 10482 10501 10512 10528 10544 10557 10570 10577 10583 10592 10600 10607
10452 10424 10399 10377 10355 10338 10324 10313 10304 10297 10291 10285 10281 10281 10281 10283 10286 10289 10291 10294 10299 10305 10313 10319 10326 10336 10348 10362 10375 10388 10405 10426 10443 10458 10477 10503 10521 10534 10546 10553 10562 10572 10581 10590 10597
10441 10414 10390 10370 10353 10337 10324 10312 10304 10298 10291 10286 10284 10284 10284 10286 10289 10292 10294 10297 10299 10301 10308 10317 10326 10334 10342 10350 10364 10382 10398 10415 10431 10452 10472 10489 10510 10523 10532 10544 10554 10562 10570 10577 10584
10432 10405 10386 10366 10348 10335 10323 10314 10306 10300 10294 10289 10287 10287 10288 10290 10291 10295 10297 10301 10306 10310 10315 10320 10327 10334 10341 10351 10360 10371 10386 10403 10423 10440 10457 10481 10494 10509 10520 10531 10541 10549 10557 10565 10571
10423 10404 10382 10365 10348 10337 10326 10315 10309 10303 10298 10294 10292 10291 10293 10296 10298 10300 10304 10308 10312 10316 10320 10325 10331 10336 10341 10349 10359 10369 10381 10395 10409 10428 10453 10473 10484 10496 10508 10520 10531 10540 10547 10553 10560
10422 10399 10380 10364 10350 10337 10327 10318 10312 10306 10302 10299 10297 10296 10297 10300 10303 10307 10310 10315 10318 10322 10328 10331 10336 10340 10346 10353 10361 10371 10381 10394 10408 10424 10450 10461 10475 10491 10501 10514 10525 10530 10538 10545 10553